Location: Turtle Rock Observatory
(36.6913°N, 81.9708°W)
Time: 09:59:00
(UTC-04:00)

Daily predictions for brighter satellites

Satellite Brightness Start Highest point End
(mag) Time Altitude Azimuth Time Altitude Azimuth Time Altitude Azimuth
Meteor 2-5 Rocket 3.7 19:37:05 10° N 19:42:45 78° E 19:48:17 10° SSE
Cosmos 2297 4.3 19:39:45 10° N 19:44:58 36° ENE 19:50:07 10° SE
Meteor 1-24 Rocket 4.0 19:41:52 10° N 19:47:18 46° ENE 19:52:31 10° SSE
Meteor 1-28 Rocket 3.4 19:44:08 10° NNE 19:47:45 47° E 19:51:20 10° S
Cosmos 1378 4.1 19:45:29 10° NNE 19:48:44 27° ENE 19:51:57 10° SE
SJ-6B 3.0 19:46:51 10° SSE 19:50:39 50° ENE 19:54:34 10° N
Cosmos 1707 2.6 19:47:37 10° N 19:51:29 79° E 19:55:19 10° S
Cosmos-2242 4.4 19:51:23 10° SE 19:54:23 18° E 19:57:24 10° NE
Helios 1B rocket 2.9 19:57:42 10° NNE 20:01:34 39° E 20:05:25 10° S
SeaSat 1 3.7 20:01:22 10° ENE 20:04:55 20° ESE 20:08:28 10° SSE
Cosmos 1408 Rocket 4.3 20:02:13 10° NNE 20:06:05 30° ENE 20:09:54 10° SE
Resurs 01 Rocket 2.0 20:03:47 10° SE 20:08:00 44° ENE 20:12:15 10° N
NOSS 3-2 (A) 3.4 20:03:46 10° SSW 20:09:45 76° ESE 20:16:14 10° NE
SAR-Lupe-4 3.9 20:06:22 10° S 20:09:55 67° WSW 20:13:29 10° NNW
Cosmos 2333 Rocket 3.9 20:05:21 10° SW 20:10:37 36° WNW 20:15:55 10° N
Resurs 1-3 4.1 20:08:03 10° SE 20:12:05 37° ENE 20:16:09 10° N
Okean 3 Rocket 3.6 20:08:05 10° N 20:12:39 89° E 20:17:11 10° S
CZ-4B DEB 4.1 20:15:36 20° E 20:16:14 21° ENE 20:18:48 10° NNE
Spot 1 4.2 20:13:23 10° SSE 20:18:13 73° ENE 20:22:48 10° N
Atlas Centaur 2 3.6 20:14:45 10° W 20:22:55 49° SSW 20:28:59 16° SE
ATLAS CENTAUR R/B 1.4 20:20:47 10° NNW 20:24:56 74° WSW 20:28:44 10° SSE
BREEZE-M DEB (TANK) 4.4 20:21:41 10° WNW 20:25:34 65° SW 20:39:14 10° SE
Cosmos 1072 Rocket 4.5 20:21:17 10° S 20:27:25 89° W 20:33:33 10° N
GPS 2-04 Rocket1 4.2 20:25:01 10° SSW 20:27:26 17° SSE 20:27:40 17° SSE
ALOS 2.6 20:26:02 13° SE 20:29:48 42° ENE 20:34:12 10° N
Cosmos 1743 Rocket 4.4 20:28:59 10° NNE 20:32:51 28° ENE 20:33:30 27° E
In-Cosmos 22 4.2 20:27:44 10° N 20:33:28 62° E 20:39:08 10° SSE
Nadezhda 4 Rocket 4.4 20:28:12 10° N 20:34:05 40° ENE 20:38:48 15° SE
Cosmos 1766 4.3 20:33:17 10° SSW 20:37:06 48° W 20:40:58 10° N
FREGAT/IRIS 4.2 20:34:44 10° SSW 20:37:38 37° W 20:40:34 10° NNW
ASTRO E2 3.5 20:33:54 10° WSW 20:37:40 38° S 20:38:55 30° SE
Spot 2 Rocket 3.5 20:32:38 10° SSE 20:37:41 84° WSW 20:42:44 10° NNW
Cosmos 2237 Rocket 4.5 20:34:33 10° WSW 20:39:11 25° WNW 20:43:51 10° N
Cosmos 2056 Rocket 4.2 20:37:43 10° NNW 20:43:02 58° WSW 20:48:19 10° S
NOSS 3-3 (A) 4.5 20:35:40 10° NNW 20:43:11 68° NE 20:48:48 21° SE
NOSS 3-3 (C) 4.5 20:35:46 10° NNW 20:43:16 67° NE 20:48:51 21° SE
OAO 3 Rocket 3.2 20:39:27 10° WSW 20:44:12 69° S 20:46:04 36° E
Helios 1A 3.1 20:41:40 10° S 20:45:49 73° WSW 20:50:01 10° NNW
NOSS 3-2 (C) 3.6 20:40:43 10° SW 20:46:44 74° WNW 20:53:17 10° NNE
CZ-4C R/B 4.5 20:44:26 10° W 20:48:38 22° NW 20:53:14 10° N
CENTAUR R/B 3.3 20:45:13 10° SSE 20:48:51 26° SE 20:48:51 26° SE
ATLAS 5 CENTAUR R/B 1.9 20:46:14 10° SW 20:50:57 78° WNW 20:56:03 10° NNE
CZ-2D R/B 3.3 20:52:08 52° ESE 20:52:41 58° ENE 20:56:32 10° N
ASTEX 1 3.3 20:48:30 10° NNE 20:53:23 61° E 20:58:12 10° S
Cosmos 1953 2.4 20:49:32 10° SSW 20:53:30 74° W 20:57:30 10° N
Meteor 2-12 Rocket 4.4 20:51:14 10° S 20:57:24 90° W 21:03:35 10° N
SL-16 R/B 3.6 20:52:14 10° SW 20:57:33 40° WNW 21:02:54 10° N
Cosmos 2034 Rocket 4.3 20:55:30 10° SSW 21:01:42 70° W 21:08:01 10° N
Cosmos 1766 Rocket 4.4 21:03:58 10° NNW 21:08:12 50° W 21:12:23 10° SSW
Cosmos 1805 4.4 21:06:52 10° SSW 21:10:36 43° W 21:14:23 10° N
H-2A R/B 2.8 21:12:11 74° SW 21:12:26 78° W 21:16:21 10° NNW
Cosmos 724 4.4 21:07:27 10° SW 21:13:20 76° WNW 21:19:25 10° NNE
SL-8 R/B 3.7 21:14:54 10° SW 21:19:08 65° S 21:19:08 65° S
Cosmos 1544 4.4 21:22:43 10° SSW 21:26:14 39° W 21:29:46 10° N
FENGYUN 3A 4.4 21:25:39 15° S 21:29:51 50° W 21:35:06 10° NNW
ERS-1 Rocket 4.0 21:34:40 35° NNE 21:34:40 35° NNE 21:37:44 10° N
SeaSat 1 3.4 21:37:52 10° NNE 21:42:36 47° WNW 21:47:18 10° SW
Cosmos 2369 Rocket 3.1 21:39:51 10° NNW 21:43:36 38° NNE 21:43:36 38° NNE
SEDSat Delta rocket 4.4 21:44:24 10° W 21:50:22 53° SSW 21:50:22 53° SSW
Cosmos 1943 Rocket 4.1 21:52:03 10° N 21:53:53 18° NNE 21:53:53 18° NNE
Atlas Centaur 2 4.2 22:05:23 10° W 22:11:38 27° SSW 22:11:38 27° SSW
CENTAUR R/B 4.4 22:34:43 10° WSW 22:47:41 - NNE 22:36:16 18° WSW
